Weather History for Chehalis, WA

Change the Weather History Date:

Tuesday, December 4, 2012

  Actual Average (KOLM) Record (KOLM)
Temperature  
Mean Temperature 50 °F 39 °F  
Max Temperature 53 °F 45 °F 56 °F (1989)
Min Temperature 46 °F 33 °F 6 °F (1994)
Degree Days  
Heating Degree Days 16 26  
Month to date heating degree days 102  
Since 1 July heating degree days 1547  
Cooling Degree Days 0 0  
Month to date cooling degree days 0  
Year to date cooling degree days 106  
Moisture  
Dew Point 46 °F    
Average Humidity 92    
Maximum Humidity 100    
Minimum Humidity 81    
Precipitation  
Precipitation 0.64 in 0.28 in 2.27 in (1989)
Month to date precipitation 1.13  
Year to date precipitation 43.67  
Sea Level Pressure  
Sea Level Pressure 29.74 in    
Wind  
Wind Speed 8 mph (South)    
Max Wind Speed 17 mph    
Max Gust Speed 25 mph    
Visibility 6 miles    
Events Rain    
T = Trace of Precipitation, MM = Missing Value Source: NWS Daily Summary

Daily Weather History Graph

Daily Weather History Graph

Search for Another Location

Airport:

Trip Planner

Search our weather history database for the weather conditions in past years. The results will help you decide how hot, cold, wet, or windy it might be!

Date:

Astronomy

Dec. 04, 2012 Rise Set
Actual Time 7:39 AM PST 4:24 PM PST
Civil Twilight 7:05 AM PST 4:59 PM PST
Nautical Twilight 6:27 AM PST 5:37 PM PST
Astronomical Twilight 5:50 AM PST 6:14 PM PST
Moon 10:32 PM PST (12/4) 11:23 AM PST (12/4)
Length of Visible Light 9h 54m
Length of Day
8h 44m
Waning Gibbous, 68% of the Moon is Illuminated
Dec 4
Waning Gibbous
Dec 6
Last Quarter
Dec 13
New
Dec 19
First Quarter
Dec 28
Full

Hourly Weather History & Observations

Time (PST) Temp. Windchill Dew Point Humidity Pressure Visibility Wind Dir Wind Speed Gust Speed Precip Events Conditions
12:15 AM 46.4 °F 40.4 °F 44.6 °F 93% 29.63 in 3.0 mi South 13.8 mph 24.2 mph 0.07 in   Overcast
12:35 AM 46.4 °F 41.1 °F 44.6 °F 93% 29.60 in 4.0 mi South 11.5 mph 19.6 mph 0.14 in   Overcast
12:55 AM 46.4 °F 41.5 °F 44.6 °F 93% 29.57 in 3.0 mi South 10.4 mph 16.1 mph 0.22 in Rain Rain
1:15 AM 46.4 °F 40.7 °F 44.6 °F 93% 29.56 in 4.0 mi South 12.7 mph 21.9 mph 0.02 in Rain Light Rain
1:35 AM 46.4 °F 40.7 °F 44.6 °F 93% 29.56 in 3.0 mi South 12.7 mph 19.6 mph 0.04 in   Overcast
1:55 AM 46.4 °F 42.9 °F 44.6 °F 93% 29.55 in 6.0 mi South 6.9 mph - 0.04 in   Overcast
2:15 AM 46.4 °F 42.9 °F 44.6 °F 93% 29.56 in 4.0 mi South 6.9 mph - 0.01 in Rain Light Rain
2:35 AM 46.4 °F 41.5 °F 44.6 °F 93% 29.57 in 4.0 mi South 10.4 mph - 0.02 in Rain Light Rain
2:55 AM 46.4 °F 42.9 °F 44.6 °F 93% 29.57 in 4.0 mi South 6.9 mph - 0.02 in   Overcast
3:15 AM 46.4 °F 40.4 °F 44.6 °F 93% 29.57 in 4.0 mi South 13.8 mph - N/A   Overcast
3:35 AM 46.4 °F 40.1 °F 46.4 °F 100% 29.57 in 6.0 mi South 15.0 mph 20.7 mph N/A   Overcast
3:55 AM 48.2 °F - 46.4 °F 93% 29.57 in 8.0 mi South 17.3 mph 25.3 mph N/A   Overcast
4:15 AM 48.2 °F - 46.4 °F 93% 29.59 in 7.0 mi South 12.7 mph 24.2 mph N/A   Overcast
4:35 AM 48.2 °F - 46.4 °F 93% 29.60 in 8.0 mi South 15.0 mph 23.0 mph N/A   Overcast
4:55 AM 50.0 °F - 48.2 °F 94% 29.62 in 5.0 mi South 9.2 mph 19.6 mph N/A   Overcast
5:15 AM 50.0 °F - 48.2 °F 94% 29.64 in 8.0 mi SSW 10.4 mph - N/A   Overcast
5:35 AM 50.0 °F - 48.2 °F 94% 29.64 in 7.0 mi South 11.5 mph 18.4 mph N/A   Overcast
5:55 AM 50.0 °F - 48.2 °F 94% 29.65 in 8.0 mi South 12.7 mph 17.3 mph N/A   Overcast
6:15 AM 50.0 °F - 48.2 °F 94% 29.66 in 9.0 mi South 10.4 mph - N/A   Overcast
6:35 AM 50.0 °F - 48.2 °F 94% 29.68 in 6.0 mi South 9.2 mph 16.1 mph 0.01 in   Overcast
7:15 AM 50.0 °F - 50.0 °F 100% 29.71 in 4.0 mi Calm Calm - 0.02 in Rain Light Rain
7:35 AM 50.0 °F - 50.0 °F 100% 29.72 in 5.0 mi South 4.6 mph - 0.03 in Rain Light Rain
7:55 AM 50.0 °F - 50.0 °F 100% 29.74 in 4.0 mi Calm Calm - 0.03 in Rain Light Rain
8:15 AM 50.0 °F - 50.0 °F 100% 29.75 in 2.0 mi SW 4.6 mph - 0.02 in Rain Light Rain
8:35 AM 50.0 °F - 50.0 °F 100% 29.77 in 2.5 mi SSW 3.5 mph - 0.03 in   Overcast
8:55 AM 50.0 °F - 48.2 °F 94% 29.78 in 9.0 mi SW 4.6 mph - 0.03 in   Mostly Cloudy
9:15 AM 50.0 °F - 48.2 °F 94% 29.79 in 3.0 mi South 5.8 mph - N/A Rain Light Rain
9:35 AM 50.0 °F - 50.0 °F 100% 29.80 in 8.0 mi South 5.8 mph - 0.02 in   Overcast
9:55 AM 50.0 °F - 50.0 °F 100% 29.81 in 2.0 mi SSW 5.8 mph - 0.02 in Rain Light Rain
10:15 AM 50.0 °F - 48.2 °F 94% 29.81 in 8.0 mi South 3.5 mph - 0.01 in   Overcast
10:35 AM 50.0 °F - 50.0 °F 100% 29.82 in 5.0 mi South 3.5 mph - 0.01 in   Mostly Cloudy
10:55 AM 50.0 °F - 50.0 °F 100% 29.81 in 10.0 mi South 5.8 mph - 0.01 in   Overcast
11:15 AM 50.0 °F - 48.2 °F 94% 29.81 in 3.0 mi SSW 4.6 mph - N/A Rain Light Rain
11:35 AM 50.0 °F - 50.0 °F 100% 29.80 in 5.0 mi Calm Calm - N/A   Mostly Cloudy
11:55 AM 50.0 °F - 48.2 °F 94% 29.80 in 5.0 mi SSW 4.6 mph - N/A   Mostly Cloudy
12:15 PM 50.0 °F - 48.2 °F 94% 29.80 in 3.0 mi WSW 3.5 mph - N/A Rain Light Rain
12:35 PM 50.0 °F - 48.2 °F 94% 29.81 in 1.8 mi WSW 5.8 mph - 0.03 in Rain Rain
12:55 PM 50.0 °F - 48.2 °F 94% 29.80 in 5.0 mi SW 3.5 mph - 0.04 in Rain Light Rain
1:15 PM 50.0 °F - 48.2 °F 94% 29.79 in 10.0 mi Calm Calm - N/A Rain Light Rain
1:35 PM 50.0 °F - 48.2 °F 94% 29.80 in 4.0 mi Calm Calm - 0.01 in Rain Light Rain
1:55 PM 51.8 °F - 48.2 °F 88% 29.78 in 8.0 mi SSE 4.6 mph - 0.01 in   Scattered Clouds
2:15 PM 53.6 °F - 48.2 °F 82% 29.78 in 10.0 mi SSE 4.6 mph - N/A   Mostly Cloudy
2:35 PM 51.8 °F - 48.2 °F 88% 29.78 in 10.0 mi South 3.5 mph - N/A   Overcast
2:55 PM 51.8 °F - 46.4 °F 82% 29.78 in 10.0 mi Calm Calm - N/A   Overcast
3:15 PM 50.0 °F - 46.4 °F 87% 29.79 in 8.0 mi Calm Calm - N/A   Overcast
3:35 PM 50.0 °F - 46.4 °F 87% 29.78 in 10.0 mi SSE 3.5 mph - N/A   Overcast
3:55 PM 50.0 °F - 46.4 °F 87% 29.78 in 10.0 mi South 4.6 mph - N/A   Overcast
4:15 PM 50.0 °F - 46.4 °F 87% 29.78 in 10.0 mi Calm Calm - N/A   Overcast
4:35 PM 50.0 °F - 46.4 °F 87% 29.79 in 10.0 mi South 5.8 mph - N/A   Overcast
4:55 PM 50.0 °F - 46.4 °F 87% 29.78 in 10.0 mi SSE 8.1 mph - N/A   Overcast
5:15 PM 50.0 °F - 46.4 °F 87% 29.78 in 10.0 mi South 8.1 mph - N/A   Overcast
5:35 PM 48.2 °F - 44.6 °F 87% 29.78 in 10.0 mi South 12.7 mph 19.6 mph N/A Rain Light Rain
5:55 PM 48.2 °F - 44.6 °F 87% 29.77 in 10.0 mi South 9.2 mph 16.1 mph N/A   Overcast
6:15 PM 48.2 °F - 44.6 °F 87% 29.77 in 10.0 mi South 8.1 mph - N/A   Overcast
6:35 PM 48.2 °F - 44.6 °F 87% 29.77 in 10.0 mi SSE 9.2 mph - N/A   Overcast
6:55 PM 48.2 °F - 44.6 °F 87% 29.77 in 6.0 mi South 9.2 mph - N/A   Overcast
7:15 PM 46.4 °F 45.2 °F 44.6 °F 93% 29.78 in 4.0 mi WSW 3.5 mph - 0.02 in Rain Rain
7:35 PM 46.4 °F 44.3 °F 44.6 °F 93% 29.80 in 3.0 mi WNW 4.6 mph - 0.08 in Rain Rain
7:55 PM 46.4 °F 45.2 °F 44.6 °F 93% 29.81 in 4.0 mi WSW 3.5 mph - 0.11 in Rain Light Rain
8:15 PM 46.4 °F 43.5 °F 44.6 °F 93% 29.81 in 4.0 mi South 5.8 mph - 0.03 in Rain Light Rain
8:35 PM 46.4 °F 44.3 °F 44.6 °F 93% 29.81 in 8.0 mi SW 4.6 mph - 0.03 in Rain Light Rain
9:15 PM 46.4 °F 44.3 °F 44.6 °F 93% 29.83 in 9.0 mi SSE 4.6 mph - N/A   Overcast
9:35 PM 46.4 °F 44.3 °F 44.6 °F 93% 29.84 in 9.0 mi WSW 4.6 mph - N/A   Overcast
9:55 PM 46.4 °F 41.9 °F 44.6 °F 93% 29.86 in 5.0 mi West 9.2 mph - 0.05 in Rain Rain
10:15 PM 46.4 °F 44.3 °F 41.0 °F 81% 29.87 in 10.0 mi WSW 4.6 mph - 0.01 in Rain Rain
10:35 PM 46.4 °F 45.2 °F 42.8 °F 87% 29.88 in 6.0 mi SSW 3.5 mph - 0.02 in Rain Light Rain
10:55 PM 46.4 °F 45.2 °F 41.0 °F 81% 29.89 in 10.0 mi SSW 3.5 mph - 0.02 in   Overcast
11:15 PM 46.4 °F 45.2 °F 41.0 °F 81% 29.91 in 6.0 mi SSW 3.5 mph - N/A   Overcast
11:35 PM 46.4 °F 44.3 °F 41.0 °F 81% 29.92 in 8.0 mi SSE 4.6 mph - N/A   Overcast
11:55 PM 46.4 °F 42.9 °F 41.0 °F 81% 29.93 in 9.0 mi South 6.9 mph - N/A   Overcast